Change the Weather History Date:

Monday, June 23, 2014

  Actual Average (KBWI) Record (KBWI)
Temperature  
Mean Temperature 66 °F 75 °F  
Max Temperature 78 °F 85 °F 97 °F (1894)
Min Temperature 55 °F 64 °F 48 °F (1992)
Degree Days  
Heating Degree Days 0 0  
Month to date heating degree days 13  
Since 1 June heating degree days 13  
Since 1 July heating degree days 4762  
Cooling Degree Days 2 10  
Month to date cooling degree days 165  
Year to date cooling degree days 249  
Since 1 June cooling degree days 165  
Growing Degree Days 16 (Base 50)    
Moisture  
Dew Point 58 °F    
Average Humidity 71    
Maximum Humidity 100    
Minimum Humidity 44    
Precipitation  
Precipitation 0.00 in 0.11 in 3.65 in (1941)
Month to date precipitation 2.69  
Year to date precipitation 19.72  
Snow  
Snow 0.00 in 0.00 in - ()
Month to date snowfall 0.0  
Since 1 July snowfall 20.1  
Snow Depth -    
Sea Level Pressure  
Sea Level Pressure 30.12 in    
Wind  
Wind Speed 3 mph (SSE)    
Max Wind Speed 13 mph    
Max Gust Speed 17 mph    
Visibility 9 miles    
Events      
T = Trace of Precipitation, MM = Missing Value Source: NWS Daily Summary

Daily Weather History Graph

Daily Weather History Graph

Search for Another Location

Airport or City:

Trip Planner

Search our weather history database for the weather conditions in past years. The results will help you decide how hot, cold, wet, or windy it might be!

Date:

Astronomy

Jun. 23, 2014 Rise Set
Actual Time 5:41 AM EDT 8:36 PM EDT
Civil Twilight 5:09 AM EDT 9:08 PM EDT
Nautical Twilight 4:28 AM EDT 9:49 PM EDT
Astronomical Twilight 3:42 AM EDT 10:36 PM EDT
Moon 3:05 AM EDT (6/23) 5:16 PM EDT (6/23)
Length of Visible Light 15h 59m
Length of Day
14h 54m
Waning Crescent, 13% of the Moon is Illuminated
Jun 23
Waning Crescent
Jun 27
New
Jul 5
First Quarter
Jul 12
Full
Jul 18
Last Quarter

Hourly Weather History & Observations

Time (EDT) Temp. Dew Point Humidity Pressure Visibility Wind Dir Wind Speed Gust Speed Precip Events Conditions
12:09 AM 60.8 °F 59.0 °F 94% 30.05 in 7.0 mi Calm Calm - N/A   Clear
12:30 AM 60.8 °F 59.0 °F 94% 30.05 in 10.0 mi Calm Calm - N/A   Clear
12:51 AM 60.8 °F 59.0 °F 94% 30.06 in 7.0 mi Calm Calm - N/A   Clear
1:09 AM 60.8 °F 59.0 °F 94% 30.05 in 10.0 mi Calm Calm - N/A   Clear
1:30 AM 60.8 °F 59.0 °F 94% 30.06 in 10.0 mi Calm Calm - N/A   Clear
1:51 AM 59.0 °F 59.0 °F 100% 30.06 in 10.0 mi Calm Calm - N/A   Clear
2:09 AM 59.0 °F 57.2 °F 94% 30.06 in 7.0 mi Calm Calm - N/A   Clear
2:30 AM 59.0 °F 57.2 °F 94% 30.06 in 7.0 mi Calm Calm - N/A   Clear
2:51 AM 59.0 °F 57.2 °F 94% 30.06 in 7.0 mi Calm Calm - N/A   Clear
3:09 AM 59.0 °F 57.2 °F 94% 30.06 in 7.0 mi Calm Calm - N/A   Clear
3:30 AM 59.0 °F 55.4 °F 88% 30.06 in 7.0 mi Calm Calm - N/A   Clear
3:51 AM 59.0 °F 55.4 °F 88% 30.06 in 7.0 mi Calm Calm - N/A   Clear
4:09 AM 57.2 °F 55.4 °F 94% 30.07 in 7.0 mi Calm Calm - N/A   Clear
4:30 AM 57.2 °F 55.4 °F 94% 30.07 in 7.0 mi Calm Calm - N/A   Clear
4:51 AM 57.2 °F 55.4 °F 94% 30.08 in 7.0 mi Calm Calm - N/A   Clear
5:12 AM 57.2 °F 55.4 °F 94% 30.08 in 7.0 mi Calm Calm - N/A   Clear
5:51 AM 55.4 °F 55.4 °F 100% 30.09 in 7.0 mi Calm Calm - N/A   Clear
6:12 AM 57.2 °F 55.4 °F 94% 30.10 in 7.0 mi Calm Calm - N/A   Clear
6:30 AM 57.2 °F 55.4 °F 94% 30.10 in 7.0 mi Calm Calm - N/A   Clear
6:51 AM 59.0 °F 57.2 °F 94% 30.11 in 10.0 mi Calm Calm - N/A   Clear
7:12 AM 60.8 °F 59.0 °F 94% 30.11 in 10.0 mi Calm Calm - N/A   Clear
7:30 AM 60.8 °F 59.0 °F 94% 30.12 in 10.0 mi Calm Calm - N/A   Clear
7:51 AM 62.6 °F 60.8 °F 94% 30.13 in 10.0 mi Calm Calm - N/A   Clear
8:12 AM 68.0 °F 62.6 °F 83% 30.14 in 10.0 mi SSW 3.5 mph - N/A   Scattered Clouds
8:30 AM 69.8 °F 64.4 °F 83% 30.14 in 10.0 mi South 4.6 mph - N/A   Scattered Clouds
8:51 AM 71.6 °F 64.4 °F 78% 30.14 in 10.0 mi Calm Calm - N/A   Scattered Clouds
9:12 AM 71.6 °F 64.4 °F 78% 30.14 in 10.0 mi South 6.9 mph - N/A   Clear
9:30 AM 73.4 °F 62.6 °F 69% 30.14 in 10.0 mi South 5.8 mph - N/A   Clear
9:51 AM 73.4 °F 60.8 °F 65% 30.15 in 10.0 mi SSE 5.8 mph - N/A   Clear
10:12 AM 75.2 °F 60.8 °F 61% 30.15 in 10.0 mi SSE 3.5 mph - N/A   Clear
10:30 AM 77.0 °F 60.8 °F 57% 30.15 in 10.0 mi SSE 5.8 mph - N/A   Clear
10:51 AM 77.0 °F 60.8 °F 57% 30.15 in 10.0 mi SSE 5.8 mph - N/A   Scattered Clouds
11:12 AM 77.0 °F 59.0 °F 54% 30.14 in 10.0 mi SE 10.4 mph - N/A   Scattered Clouds
11:30 AM 77.0 °F 59.0 °F 54% 30.15 in 10.0 mi South 4.6 mph - N/A   Scattered Clouds
11:51 AM 78.8 °F 59.0 °F 51% 30.15 in 10.0 mi SSE 8.1 mph - N/A   Scattered Clouds
12:12 PM 78.8 °F 59.0 °F 51% 30.14 in 10.0 mi SE 6.9 mph - N/A   Scattered Clouds
12:30 PM 77.0 °F 59.0 °F 54% 30.14 in 10.0 mi SSE 6.9 mph - N/A   Scattered Clouds
12:51 PM 78.8 °F 60.8 °F 54% 30.14 in 10.0 mi SE 8.1 mph - N/A   Scattered Clouds
1:12 PM 78.8 °F 60.8 °F 54% 30.14 in 10.0 mi SSW 3.5 mph - N/A   Scattered Clouds
1:30 PM 78.8 °F 60.8 °F 54% 30.13 in 10.0 mi SSE 9.2 mph - N/A   Scattered Clouds
1:51 PM 78.8 °F 60.8 °F 54% 30.14 in 10.0 mi South 8.1 mph - N/A   Scattered Clouds
2:12 PM 78.8 °F 59.0 °F 51% 30.13 in 10.0 mi SSE 11.5 mph - N/A   Clear
2:33 PM 78.8 °F 59.0 °F 51% 30.15 in 10.0 mi SE 10.4 mph 17.3 mph N/A   Scattered Clouds
2:51 PM 78.8 °F 59.0 °F 51% 30.14 in 10.0 mi SSE 10.4 mph - N/A   Scattered Clouds
3:12 PM 78.8 °F 57.2 °F 47% 30.13 in 10.0 mi SE 10.4 mph 17.3 mph N/A   Clear
3:33 PM 78.8 °F 57.2 °F 47% 30.14 in 10.0 mi SE 11.5 mph 17.3 mph N/A   Scattered Clouds
4:12 PM 78.8 °F 55.4 °F 44% 30.14 in 10.0 mi South 8.1 mph - N/A   Mostly Cloudy
4:33 PM 78.8 °F 55.4 °F 44% 30.13 in 10.0 mi SSE 5.8 mph - N/A   Scattered Clouds
4:51 PM 78.8 °F 55.4 °F 44% 30.13 in 10.0 mi South 6.9 mph - N/A   Clear
5:12 PM 78.8 °F 57.2 °F 47% 30.12 in 10.0 mi South 8.1 mph - N/A   Clear
5:33 PM 78.8 °F 55.4 °F 44% 30.11 in 10.0 mi SE 12.7 mph 17.3 mph N/A   Clear
5:51 PM 78.8 °F 55.4 °F 44% 30.11 in 10.0 mi SE 9.2 mph - N/A   Clear
6:33 PM 77.0 °F 55.4 °F 47% 30.10 in 10.0 mi SE 10.4 mph - N/A   Clear
6:51 PM 77.0 °F 57.2 °F 50% 30.11 in 10.0 mi SE 9.2 mph - N/A   Clear
7:12 PM 77.0 °F 57.2 °F 50% 30.11 in 10.0 mi SE 8.1 mph - N/A   Clear
7:33 PM 75.2 °F 57.2 °F 53% 30.11 in 10.0 mi SSE 8.1 mph - N/A   Clear
7:51 PM 73.4 °F 57.2 °F 57% 30.12 in 10.0 mi SSE 6.9 mph - N/A   Clear
8:12 PM 73.4 °F 55.4 °F 53% 30.12 in 10.0 mi SE 8.1 mph - N/A   Clear
8:33 PM 71.6 °F 55.4 °F 57% 30.12 in 10.0 mi SE 5.8 mph - N/A   Clear
8:51 PM 71.6 °F 55.4 °F 57% 30.12 in 10.0 mi SE 5.8 mph - N/A   Clear
9:12 PM 69.8 °F 57.2 °F 64% 30.13 in 10.0 mi SE 3.5 mph - N/A   Clear
9:33 PM 66.2 °F 57.2 °F 73% 30.15 in 10.0 mi Calm Calm - N/A   Clear
9:51 PM 64.4 °F 57.2 °F 77% 30.16 in 10.0 mi Calm Calm - N/A   Clear
10:12 PM 64.4 °F 59.0 °F 83% 30.17 in 10.0 mi Calm Calm - N/A   Clear
10:33 PM 64.4 °F 59.0 °F 83% 30.17 in 10.0 mi SSE 3.5 mph - N/A   Clear
10:54 PM 64.4 °F 59.0 °F 83% 30.17 in 10.0 mi SSE 3.5 mph - N/A   Clear
11:12 PM 64.4 °F 59.0 °F 83% 30.17 in 10.0 mi Calm Calm - N/A   Clear
11:33 PM 64.4 °F 59.0 °F 83% 30.17 in 10.0 mi Calm Calm - N/A   Clear
11:54 PM 62.6 °F 59.0 °F 88% 30.17 in 10.0 mi Calm Calm - N/A   Clear